Home > Weather > Tuzla > Past weeks

Flag for Bosnia-Herzegovina Past Weather in Tuzla, Bosnia-Herzegovina — Yesterday and Last 2 Weeks

Now
63 °F

Partly sunny.


Feels Like: 63 °F
Forecast: 54 / 81 °F
Wind: 6 mph from West

Location: Tuzla

Current Time: Aug 24, 2016 at 8:56:41 AM

Latest Report: Aug 24, 2016 at 8:00 AM


Visibility: N/A

Pressure: 30.21 "Hg

Humidity: 88%

Dew Point: 59 °F

Location of TuzlaLocation

Past Weather in Tuzla — Graph

°F

Tuzla Temperature Yesterday

Maximum temperature yesterday: 63 °F (at 3:30 PM)
Minimum temperature yesterday: 59 °F (at 6:00 AM)
Average temperature yesterday: 61 °F

High & Low Weather Summary for the Past Weeks

 TemperatureHumidityPressure
High88 °F (Aug 21, 3:00 PM)100% (Aug 9, 7:00 AM)30.33 "Hg (Aug 9, 7:00 AM)
Low43 °F (Aug 13, 6:00 AM)29% (Aug 12, 3:30 PM)29.80 "Hg (Aug 10, 4:30 PM)
Average68 °F70%30.06 "Hg
* Reported Aug 9 7:00 AM — Aug 24 7:00 AM, Tuzla, Weather by CustomWeather, © 2016

Note: Actual official high and low records may vary slightly from our data, if they occured in-between our weather recording intervals... More about our weather records

Advertising

Tuzla Weather History for the Previous 24 Hours

Scroll right to see more
 ConditionsComfort  
Time TempWeatherWind HumidityBarometerVisibility
7:00 AM
Wed, Aug 24
61 °FPartly sunny.2 mph88%30.21 "HgN/A
6:30 AM61 °FPassing clouds.1 mph88%30.21 "Hg4 mi
6:00 AM61 °FFog.2 mph88%30.21 "Hg2 mi
11:30 PM
Tue, Aug 23
61 °FPassing clouds.1 mph94%30.21 "HgN/A
11:00 PM61 °FPassing clouds.2 mph94%30.21 "HgN/A
10:30 PM61 °FPassing clouds.3 mph94%30.21 "HgN/A
10:00 PM61 °FPassing clouds.2 mph94%30.24 "HgN/A
9:30 PM61 °FPassing clouds.1 mph94%30.24 "HgN/A
9:00 PM61 °FPassing clouds.2 mph94%30.21 "HgN/A
8:30 PM61 °FBroken clouds.1 mph88%30.21 "HgN/A
8:00 PM61 °FBroken clouds.1 mph88%30.21 "HgN/A
7:30 PM63 °FBroken clouds.3 mph83%30.21 "HgN/A
7:00 PM63 °FPartly sunny.5 mph83%30.21 "HgN/A
6:30 PM63 °FScattered clouds.5 mph83%30.21 "HgN/A
6:00 PM63 °FScattered clouds.5 mph83%30.24 "HgN/A
5:30 PM63 °FPartly sunny.5 mph83%30.24 "HgN/A
5:00 PM63 °FPartly sunny.5 mph83%30.24 "HgN/A
4:30 PM63 °FPartly sunny.5 mph83%30.24 "HgN/A
4:00 PM63 °FBroken clouds.6 mph83%30.24 "HgN/A
3:30 PM63 °FBroken clouds.7 mph83%30.24 "Hg5 mi
3:00 PM61 °FBroken clouds.8 mph88%30.24 "Hg5 mi
2:30 PM61 °FBroken clouds.7 mph88%30.24 "Hg4 mi
2:00 PM61 °FBroken clouds.7 mph88%30.24 "Hg5 mi
1:30 PM61 °FFog.8 mph94%30.24 "Hg3 mi
1:00 PM61 °FFog.7 mph94%30.24 "Hg2 mi
12:30 PM61 °FFog.7 mph94%30.24 "Hg3 mi
12:00 PM61 °FLight rain. Fog.8 mph94%30.24 "Hg3 mi
11:30 AM61 °FLight rain. Fog.6 mph100%30.24 "Hg1 mi
11:00 AM61 °FLight rain. Fog.7 mph100%30.24 "Hg1 mi
10:30 AM61 °FLight rain. Fog.7 mph100%30.24 "Hg1 mi
10:00 AM59 °FLight rain. Fog.7 mph100%30.24 "Hg1 mi
9:00 AM59 °FLight rain. Fog.7 mph100%30.21 "Hg1 mi
8:00 AM59 °FLight rain. Fog.7 mph100%30.21 "Hg1 mi
Weather by CustomWeather, © 2016

See weather overviewHow to use our weather pages